Theta_e
320 321 321 321 321 321 321 321 321 320 321 321 321 322 321 322 321 319 316 321 322 335 330 320 314 314 313 311 317 318 316 311 311 313 314 320 321 326 328 324 325 327 327 330 333
320 321 321 321 321 320 320 321 321 320 321 321 321 321 321 322 318 314 328 335 338 334 312 310 309 313 312 310 314 313 312 312 316 318 319 322 323 323 321 322 322 326 332 335 338
320 320 321 320 320 320 320 320 320 320 321 321 320 321 321 322 315 317 338 341 338 332 312 312 313 315 311 314 312 318 312 317 318 324 324 322 322 324 321 319 325 324 330 333 329
319 320 320 320 320 320 320 320 320 320 320 319 320 321 322 320 306 319 344 338 336 319 312 313 314 318 318 315 319 315 318 321 323 325 324 321 322 321 323 323 329 329 332 333 329
319 319 319 319 319 319 319 319 319 319 318 318 319 321 318 312 313 330 341 334 317 313 312 313 314 318 318 319 321 320 321 323 324 324 323 323 320 320 322 328 329 332 332 331 328
318 318 318 319 319 319 318 318 317 318 318 318 320 322 310 309 319 329 320 317 314 313 314 315 317 322 318 316 318 323 323 323 324 322 322 317 316 319 325 329 328 330 331 332 330
317 318 318 318 318 318 318 317 317 317 318 319 320 318 309 312 320 320 318 314 314 313 314 315 315 316 322 320 326 325 319 321 322 321 319 319 315 317 326 327 327 329 332 332 328
317 317 317 318 318 318 318 317 316 318 318 319 321 315 310 314 317 319 320 319 318 315 315 316 318 320 321 324 320 316 316 312 317 320 320 318 308 317 324 325 325 329 330 330 328
317 317 317 317 317 317 317 316 317 320 319 320 316 311 308 318 315 318 320 313 313 313 315 316 319 320 320 315 312 311 308 309 313 320 320 317 311 319 323 320 324 328 330 329 327
317 316 316 316 317 316 314 314 318 319 318 319 315 309 313 311 316 316 316 314 314 315 315 316 314 315 315 313 304 308 306 310 310 316 318 315 313 318 319 319 322 326 331 329 326
317 316 316 316 316 315 313 310 310 310 310 306 307 307 308 315 316 315 314 315 316 315 311 312 311 310 313 314 309 308 310 310 313 316 316 316 315 316 321 321 323 324 330 329 328
316 316 316 315 315 314 310 309 308 308 305 307 306 307 310 314 311 313 317 314 312 310 310 310 309 311 310 308 310 312 312 310 312 315 316 314 314 319 321 322 323 323 324 329 329
315 315 315 315 313 309 308 309 310 308 304 306 308 308 310 313 310 312 316 315 312 309 309 309 310 310 312 313 312 312 311 310 310 314 315 313 311 314 318 321 323 325 325 327 330
314 314 314 313 311 306 307 309 309 308 303 306 308 311 311 312 310 315 317 316 312 309 309 310 310 310 311 310 312 308 312 313 311 310 306 312 303 310 315 316 318 323 322 327 330
313 314 313 311 310 308 309 310 309 314 295 309 308 314 311 310 312 313 318 316 311 310 311 308 308 308 309 309 313 310 316 313 310 309 309 308 305 307 312 312 316 320 322 326 331
313 313 312 310 309 310 309 311 314 302 295 304 307 306 307 308 310 313 314 317 315 310 310 309 312 310 312 315 315 315 312 310 309 308 302 305 306 308 310 313 316 320 323 325 328
313 312 311 311 310 309 313 313 300 298 305 305 302 305 305 306 307 310 310 310 308 306 306 309 309 315 316 312 314 313 311 303 301 301 301 308 305 309 314 316 318 320 322 324 327
311 309 310 313 314 314 314 306 297 300 304 309 306 304 304 306 307 308 308 307 308 309 305 304 301 312 312 313 312 312 309 303 295 297 300 307 304 311 316 319 320 321 325 325 327
308 311 311 313 314 314 310 297 298 303 308 305 305 301 302 305 306 306 307 307 310 311 307 305 305 313 313 312 315 310 305 309 304 304 302 305 309 315 316 317 319 320 323 324 324
313 314 315 314 311 314 305 295 301 306 308 306 302 302 301 303 304 305 306 309 308 311 313 311 305 312 312 314 312 311 309 304 306 297 295 301 304 306 313 316 318 318 319 323 323
314 310 315 313 312 308 300 299 302 307 308 303 304 305 302 302 304 303 305 308 311 310 315 313 312 309 313 310 309 308 307 306 307 306 299 297 301 316 317 319 319 319 320 321 321
309 306 315 311 306 300 299 300 301 305 307 304 307 307 308 306 303 303 304 308 315 317 311 314 314 308 308 312 313 310 308 310 304 301 305 304 304 315 318 319 321 321 319 320 321
305 305 316 313 303 302 301 301 303 303 303 305 305 309 311 309 305 304 305 315 320 317 316 316 311 305 305 309 311 310 308 308 309 310 306 301 304 315 319 319 320 321 318 318 318
307 304 310 307 304 304 302 302 302 308 308 310 309 311 308 309 309 309 308 315 317 318 316 321 311 311 304 306 308 307 307 308 310 306 305 306 308 313 318 318 320 319 321 318 317
306 306 309 303 303 303 303 301 300 302 306 310 308 309 307 307 308 309 312 314 315 316 315 319 311 308 307 307 309 308 307 307 307 310 305 307 308 313 318 321 321 323 321 317 317
307 312 313 311 311 308 301 303 301 304 303 308 308 310 310 309 310 308 312 312 312 316 317 314 310 310 307 310 309 308 308 308 308 308 309 311 311 318 320 320 319 320 319 317 317
310 312 313 305 308 306 307 307 303 307 310 312 310 309 310 311 315 315 316 316 316 316 315 315 313 309 304 308 308 304 308 308 309 312 312 308 314 318 319 320 322 322 320 319 319
Wind_Speed
13 13 12 11 14 13 12 13 12 14 12 13 13 12 13 12 11 3 4 2 2 10 4 9 3 4 2 3 2 1 2 4 5 7 5 3 7 7 4 13 11 9 14 10 10
13 13 12 11 13 15 12 13 12 14 12 12 13 12 11 8 2 2 2 3 6 9 5 4 5 4 4 2 3 3 1 3 1 7 6 7 10 7 6 14 16 17 16 15 12
13 15 13 12 13 14 14 13 12 13 12 12 13 13 10 5 1 2 2 7 6 3 1 2 7 3 4 1 3 4 4 6 5 12 8 11 5 3 14 8 12 11 13 14 14
13 15 14 13 14 15 15 12 13 13 14 13 14 13 13 3 5 2 6 6 7 5 4 5 6 4 4 3 3 9 6 5 9 7 5 6 5 6 3 8 11 10 12 14 11
13 14 13 13 14 14 15 13 14 12 13 12 14 13 2 1 3 3 5 3 4 5 5 6 6 6 9 10 14 11 10 9 8 14 16 13 13 5 10 10 7 11 14 12 10
13 13 13 14 14 14 14 14 13 11 11 11 12 13 1 3 3 6 3 2 2 3 1 2 7 13 13 4 4 10 19 15 10 12 8 9 8 4 8 5 5 10 10 10 9
15 14 13 15 14 15 14 15 13 12 10 9 9 3 1 3 4 5 4 1 1 1 2 3 1 3 8 14 14 18 16 12 8 4 6 6 11 8 6 4 8 6 6 8 8
14 15 15 17 17 17 15 16 15 12 5 5 4 1 3 1 2 4 4 2 3 1 2 5 6 11 5 20 10 5 6 6 3 3 3 3 4 2 3 3 7 4 6 7 8
13 14 15 16 17 18 17 17 6 3 5 4 2 2 2 0 2 3 3 4 5 3 3 5 5 9 10 10 7 3 3 4 6 2 1 2 9 9 5 1 2 0 5 5 6
13 14 16 16 16 18 18 5 1 2 3 3 1 2 1 1 3 1 2 1 2 5 5 2 5 6 6 7 6 6 5 4 5 4 2 6 7 11 7 7 5 4 5 7 6
13 15 15 14 15 16 11 2 5 2 5 1 5 3 4 5 2 2 3 4 2 2 3 3 6 6 13 14 2 3 6 9 2 3 1 4 9 14 11 9 7 6 7 8 8
14 15 16 14 14 13 4 6 5 3 7 1 5 6 6 3 2 3 5 4 2 4 3 4 2 2 5 5 7 9 14 7 5 2 0 5 4 8 8 6 8 9 9 9 9
12 13 16 16 11 3 3 5 2 5 2 6 3 3 1 5 2 6 8 4 4 3 3 3 3 1 5 12 13 5 3 9 5 7 6 5 3 7 5 8 8 10 9 10 12
11 11 14 22 2 3 1 2 5 6 3 4 1 1 3 2 2 4 6 3 3 6 5 2 1 6 10 5 2 5 2 9 14 5 1 3 2 6 7 9 10 12 13 12 12
10 10 11 10 3 4 4 8 5 2 2 2 1 1 1 2 2 3 2 2 5 5 4 2 2 4 4 3 3 4 10 11 6 4 2 4 5 4 2 10 13 13 13 12 13
9 9 10 1 2 3 8 4 2 2 3 2 2 1 2 2 1 2 2 4 2 2 3 3 1 3 5 9 6 18 10 6 4 1 3 2 4 3 6 10 8 12 16 14 14
10 8 3 2 3 7 7 2 1 1 2 5 2 1 2 2 1 3 4 4 3 4 3 3 3 4 13 13 7 3 6 2 2 3 1 3 4 7 7 10 8 11 13 12 14
11 6 3 3 6 7 1 2 1 1 3 3 3 0 3 1 2 2 6 6 2 3 4 2 4 7 5 3 6 13 3 3 4 3 2 3 5 1 1 5 7 8 12 12 14
9 1 2 2 2 1 3 1 0 2 3 7 3 2 1 1 0 1 4 6 4 5 3 4 3 1 1 4 5 6 6 3 6 1 3 1 4 9 3 3 6 7 10 13 15
2 3 2 5 2 2 3 2 2 3 4 2 1 1 4 2 2 1 5 4 3 5 1 5 3 1 4 4 8 3 8 3 2 1 2 3 5 4 4 6 8 9 11 12 11
2 1 3 4 1 4 1 3 4 5 5 2 1 1 1 1 2 2 4 2 2 5 3 5 1 3 3 3 5 5 3 5 3 3 2 2 3 5 6 6 11 12 12 12 13
2 1 3 2 2 1 1 2 3 4 3 2 1 1 1 2 2 2 4 3 3 6 7 2 3 3 2 1 2 1 1 4 3 3 1 2 4 0 3 3 9 10 10 10 11
1 1 1 2 2 1 2 3 3 3 3 3 2 1 0 2 2 3 3 1 4 6 7 7 1 3 2 2 2 4 3 3 5 2 6 3 2 2 4 5 7 11 11 12 12
1 1 2 3 2 3 1 2 4 4 4 4 3 2 2 1 0 1 3 2 2 2 6 6 3 4 6 2 2 3 4 5 3 4 5 7 7 4 5 5 7 11 12 14 14
2 1 2 2 2 2 0 2 3 5 3 2 1 0 1 0 1 2 1 1 2 4 4 1 3 2 2 1 2 4 5 9 10 6 7 4 5 2 3 8 9 9 9 11 14
3 3 1 2 1 3 1 2 3 4 4 2 0 6 1 1 1 2 1 2 2 3 3 1 3 2 3 2 1 4 3 5 9 4 9 4 6 5 2 2 6 8 10 13 14
1 1 1 1 3 3 3 4 4 2 5 8 5 5 4 1 4 1 2 4 2 2 3 2 5 2 2 2 1 5 3 3 4 4 3 6 1 2 4 7 8 8 11 15 14
Wind_Direction
330 322 324 329 319 320 321 317 316 316 318 317 317 316 314 317 309 181 178 180 76 116 133 132 114 96 68 85 46 138 115 140 133 162 136 109 115 73 80 87 75 84 83 87 105
327 321 321 328 318 316 319 312 316 316 317 318 316 313 311 323 264 186 318 81 94 145 123 166 129 132 75 56 52 37 62 141 20 126 133 94 91 102 129 107 77 82 85 91 82
328 319 320 329 318 311 310 311 316 317 316 317 316 312 309 306 186 48 77 128 129 180 107 117 119 94 91 89 39 62 105 119 79 118 111 93 86 100 131 99 71 84 89 77 78
318 317 316 322 313 307 307 316 316 318 314 319 317 314 316 204 111 57 96 134 159 178 147 127 131 111 65 74 57 107 70 88 133 96 88 75 95 115 59 89 102 83 107 95 91
319 311 317 315 306 305 306 312 308 309 308 317 315 318 270 102 85 98 130 164 138 176 200 183 138 123 94 105 87 93 103 70 96 94 90 102 79 71 77 85 107 88 88 100 107
317 311 322 311 308 306 304 306 300 297 298 310 311 313 293 107 83 128 138 155 220 226 73 25 79 109 96 78 59 109 111 114 105 102 100 81 57 163 82 75 70 66 86 107 106
318 321 323 309 315 309 307 302 298 295 295 296 302 327 61 113 105 119 177 224 238 265 74 45 55 138 112 99 117 127 109 117 140 119 111 86 61 86 93 74 68 66 119 104 107
321 322 322 321 318 312 313 308 307 301 278 261 264 289 240 29 153 254 184 216 246 307 24 87 75 82 81 121 132 131 149 142 129 161 74 226 146 132 142 52 51 63 144 132 117
323 321 321 316 318 316 317 312 318 52 116 161 177 326 119 75 266 93 192 141 136 92 65 100 75 93 144 140 144 193 161 140 157 253 150 350 147 173 200 254 21 43 120 157 138
320 326 319 317 321 316 317 276 65 104 169 179 134 182 1 322 308 42 155 172 120 116 124 92 84 137 154 206 258 196 184 157 177 159 147 101 143 161 186 210 211 224 183 185 181
328 321 315 314 315 327 342 225 358 11 44 342 301 270 285 293 282 187 163 131 96 89 134 40 159 178 194 237 302 225 145 122 90 66 114 104 170 176 185 198 215 220 203 200 200
326 318 317 318 316 318 297 75 91 311 311 296 256 264 257 260 98 135 159 154 136 144 137 145 85 153 129 164 151 150 130 111 110 53 181 145 169 207 210 216 221 227 212 204 198
317 317 320 324 322 341 8 104 47 175 276 302 242 255 197 189 139 175 177 152 142 129 160 139 66 273 137 135 108 121 132 164 134 120 72 153 214 217 214 225 228 232 235 211 204
316 327 333 326 72 335 27 43 317 192 3 331 290 88 163 235 120 199 200 167 131 170 179 120 77 96 107 107 147 153 202 141 133 183 139 310 298 233 214 236 228 218 205 203 202
322 334 342 7 304 299 357 337 124 211 83 326 268 74 72 232 134 186 197 84 162 175 200 79 38 130 107 54 83 93 138 118 122 91 175 191 259 117 225 247 238 225 215 206 203
326 331 333 255 229 283 325 325 178 273 62 28 301 164 124 351 76 101 142 69 90 115 47 60 85 45 80 53 125 135 115 87 99 122 262 118 280 194 185 221 237 218 220 213 209
322 318 296 301 297 341 320 25 311 33 316 359 357 341 133 169 161 156 149 145 167 160 52 63 36 71 129 103 130 158 155 130 236 214 267 118 235 277 192 210 226 214 210 204 204
318 307 199 255 313 321 357 51 78 352 337 351 351 95 176 173 100 128 132 172 170 100 107 125 139 183 163 185 184 177 226 270 270 234 79 158 241 45 231 274 240 211 199 187 194
309 239 294 337 319 229 75 61 192 199 309 325 310 141 133 156 182 128 163 186 210 177 148 159 195 192 314 143 165 171 213 81 107 12 243 225 267 262 236 215 207 187 184 189 199
346 337 352 332 343 55 79 226 264 242 309 273 44 56 176 164 169 158 174 176 205 184 269 179 152 182 161 134 61 228 129 186 135 163 290 220 280 277 254 217 203 204 206 204 201
49 334 17 349 301 52 173 242 275 259 241 259 339 44 96 226 209 200 179 157 194 146 115 144 192 151 211 206 178 154 168 73 88 319 267 270 292 216 254 232 214 215 208 206 194
93 260 15 306 58 32 172 217 305 280 267 272 250 259 216 146 214 238 224 244 158 156 154 128 125 199 170 61 340 100 156 165 247 189 63 320 273 187 228 261 227 222 216 211 201
77 318 32 293 149 123 285 281 263 296 302 314 288 227 184 186 201 226 248 56 209 159 160 179 140 132 122 172 134 230 164 125 107 148 187 246 289 181 251 256 232 215 204 200 200
130 147 30 60 10 122 29 328 306 307 269 274 274 231 198 72 63 225 237 337 111 113 84 105 135 179 209 145 120 199 199 186 192 215 182 241 296 249 217 222 217 213 209 201 199
19 121 7 160 171 134 211 344 315 320 276 267 232 249 338 25 180 185 154 176 67 157 79 108 147 185 151 172 224 259 225 194 210 233 228 281 219 310 244 221 219 222 207 199 204
149 171 121 101 102 135 144 210 230 258 236 264 256 345 309 274 297 356 166 191 190 157 112 115 134 182 138 85 5 263 250 234 241 222 251 249 262 224 316 213 206 215 203 210 211
132 83 253 99 128 177 198 213 237 244 250 253 313 323 286 302 333 7 75 73 43 124 124 83 138 130 225 345 322 267 278 238 231 238 236 220 132 153 238 237 248 232 216 221 218